KB0UOA Weather Reports


Display with metric or nautical units.
time (UTC)temp
F
wind
direction
speed
MPH
gust
MPH
rain 1hr
in
rain 24hr
in
rain mn
in
humidity
%
barometer
mb
20260504222705 83 181 5.0 15.0 0.00 0.00 0.00 42 1002.9
20260504222605 83 182 5.0 15.0 0.00 0.00 0.00 42 1002.9
20260504222505 83 183 5.0 15.0 0.00 0.00 0.00 42 1002.9
20260504222405 83 186 5.0 15.0 0.00 0.00 0.00 42 1002.8
20260504222305 83 187 5.0 15.0 0.00 0.00 0.00 42 1002.9
20260504222105 83 184 4.0 15.0 0.00 0.00 0.00 41 1002.7
20260504222005 83 181 4.0 15.0 0.00 0.00 0.00 41 1002.8
20260504221904 83 171 4.0 15.0 0.00 0.00 0.00 42 1002.9
20260504221805 83 168 4.0 15.0 0.00 0.00 0.00 42 1002.9
20260504221704 83 167 4.0 10.0 0.00 0.00 0.00 42 1002.9
20260504221604 83 166 4.0 10.0 0.00 0.00 0.00 42 1002.9
20260504221504 83 165 4.0 10.0 0.00 0.00 0.00 42 1002.9
20260504221405 83 168 5.0 10.0 0.00 0.00 0.00 41 1002.9
20260504221104 83 172 5.0 12.0 0.00 0.00 0.00 41 1002.9
20260504220904 84 176 5.0 12.0 0.00 0.00 0.00 41 1002.9
20260504220804 84 174 5.0 12.0 0.00 0.00 0.00 41 1002.9
20260504220704 84 171 5.0 12.0 0.00 0.00 0.00 41 1003.0
20260504220604 84 174 5.0 12.0 0.00 0.00 0.00 40 1002.9
20260504220504 84 175 5.0 12.0 0.00 0.00 0.00 39 1002.8
20260504220304 84 173 5.0 12.0 0.00 0.00 0.00 40 1002.9
20260504220204 84 173 5.0 13.0 0.00 0.00 0.00 39 1003.0
20260504220104 84 170 4.0 13.0 0.00 0.00 0.00 39 1003.0
20260504215904 85 168 4.0 13.0 0.00 0.00 0.00 40 1002.9
20260504215804 85 172 4.0 13.0 0.00 0.00 0.00 41 1003.0
20260504215604 85 171 5.0 13.0 0.00 0.00 0.00 39 1003.0
20260504215504 85 174 4.0 13.0 0.00 0.00 0.00 40 1003.0
20260504215305 85 171 4.0 13.0 0.00 0.00 0.00 40 1003.0
20260504215105 85 176 4.0 11.0 0.00 0.00 0.00 39 1003.0
20260504214904 85 175 4.0 11.0 0.00 0.00 0.00 40 1003.1
20260504214804 85 174 5.0 11.0 0.00 0.00 0.00 40 1003.1
20260504214704 85 171 5.0 11.0 0.00 0.00 0.00 40 1003.1
20260504214604 85 172 5.0 11.0 0.00 0.00 0.00 40 1003.1
20260504214405 85 165 5.0 12.0 0.00 0.00 0.00 40 1003.1
20260504214305 85 161 4.0 12.0 0.00 0.00 0.00 39 1003.1
20260504214104 85 161 4.0 12.0 0.00 0.00 0.00 39 1003.1
20260504214005 85 164 4.0 12.0 0.00 0.00 0.00 39 1003.0
20260504213804 85 169 5.0 12.0 0.00 0.00 0.00 40 1003.1
20260504213704 85 172 5.0 13.0 0.00 0.00 0.00 39 1003.1
20260504213604 85 174 5.0 13.0 0.00 0.00 0.00 40 1003.1
20260504213504 85 175 6.0 13.0 0.00 0.00 0.00 39 1003.2
20260504213305 85 181 6.0 13.0 0.00 0.00 0.00 38 1003.1
20260504213204 85 182 6.0 13.0 0.00 0.00 0.00 38 1003.2
20260504213104 85 181 6.0 13.0 0.00 0.00 0.00 38 1003.1
20260504212904 86 174 5.0 13.0 0.00 0.00 0.00 38 1003.1
20260504212804 86 173 5.0 13.0 0.00 0.00 0.00 37 1003.1
20260504212405 87 170 4.0 10.0 0.00 0.00 0.00 37 1003.1
20260504212305 87 170 4.0 10.0 0.00 0.00 0.00 36 1003.2
20260504212205 87 163 4.0 10.0 0.00 0.00 0.00 36 1003.1
20260504212104 87 162 4.0 10.0 0.00 0.00 0.00 37 1003.1
20260504212004 87 166 4.0 10.0 0.00 0.00 0.00 36 1003.2
20260504211905 87 163 3.0 10.0 0.00 0.00 0.00 35 1003.1
20260504211705 87 160 3.0 10.0 0.00 0.00 0.00 35 1003.2
20260504211604 87 162 3.0 10.0 0.00 0.00 0.00 36 1003.2
20260504211404 87 178 4.0 14.0 0.00 0.00 0.00 35 1003.2
20260504211304 87 186 4.0 14.0 0.00 0.00 0.00 36 1003.2
20260504211105 87 193 4.0 14.0 0.00 0.00 0.00 35 1003.2
20260504211004 87 192 4.0 14.0 0.00 0.00 0.00 34 1003.2
20260504210904 87 192 4.0 14.0 0.00 0.00 0.00 35 1003.2
20260504210804 87 194 4.0 14.0 0.00 0.00 0.00 34 1003.3
20260504210704 87 194 4.0 14.0 0.00 0.00 0.00 34 1003.3
20260504210504 87 191 3.0 14.0 0.00 0.00 0.00 32 1003.3
20260504210405 88 175 3.0 9.0 0.00 0.00 0.00 33 1003.3
20260504210304 88 164 3.0 7.0 0.00 0.00 0.00 33 1003.3
20260504210204 88 155 3.0 7.0 0.00 0.00 0.00 34 1003.3
20260504210104 88 152 3.0 7.0 0.00 0.00 0.00 34 1003.3
20260504210005 88 150 3.0 7.0 0.00 0.00 0.00 33 1003.3
20260504205904 88 147 3.0 6.0 0.00 0.00 0.00 34 1003.3
20260504205805 88 148 3.0 7.0 0.00 0.00 0.00 33 1003.4
20260504205604 88 144 3.0 7.0 0.00 0.00 0.00 33 1003.4
20260504205504 88 143 3.0 7.0 0.00 0.00 0.00 33 1003.4
20260504205404 88 143 2.0 7.0 0.00 0.00 0.00 33 1003.4
20260504205305 88 144 2.0 7.0 0.00 0.00 0.00 33 1003.4
20260504205205 88 147 3.0 7.0 0.00 0.00 0.00 34 1003.4
20260504205104 88 143 2.0 7.0 0.00 0.00 0.00 34 1003.4
20260504205005 88 144 2.0 7.0 0.00 0.00 0.00 34 1003.5
20260504204905 88 145 2.0 7.0 0.00 0.00 0.00 33 1003.4
20260504204804 88 140 2.0 6.0 0.00 0.00 0.00 33 1003.5
20260504204704 88 139 2.0 6.0 0.00 0.00 0.00 33 1003.5
20260504204604 88 140 2.0 6.0 0.00 0.00 0.00 32 1003.5
20260504204504 88 142 2.0 6.0 0.00 0.00 0.00 34 1003.5
20260504204404 88 151 2.0 6.0 0.00 0.00 0.00 34 1003.6
20260504204304 88 151 2.0 6.0 0.00 0.00 0.00 34 1003.5
20260504204204 88 150 2.0 6.0 0.00 0.00 0.00 33 1003.6
20260504204105 88 152 2.0 5.0 0.00 0.00 0.00 34 1003.5
20260504204004 88 154 2.0 5.0 0.00 0.00 0.00 34 1003.6
20260504203804 88 164 2.0 6.0 0.00 0.00 0.00 34 1003.6
20260504203704 88 169 2.0 6.0 0.00 0.00 0.00 34 1003.6
20260504203604 88 172 2.0 6.0 0.00 0.00 0.00 34 1003.6
20260504203504 88 174 2.0 7.0 0.00 0.00 0.00 33 1003.7
20260504203405 87 175 3.0 7.0 0.00 0.00 0.00 34 1003.6
20260504203104 87 179 3.0 11.0 0.00 0.00 0.00 34 1003.7
20260504203004 87 179 3.0 11.0 0.00 0.00 0.00 33 1003.7
20260504202904 87 182 3.0 11.0 0.00 0.00 0.00 34 1003.7
20260504202804 86 184 3.0 11.0 0.00 0.00 0.00 34 1003.7
20260504202704 86 183 3.0 11.0 0.00 0.00 0.00 34 1003.7
20260504202604 86 183 3.0 11.0 0.00 0.00 0.00 33 1003.8
20260504202404 86 179 3.0 11.0 0.00 0.00 0.00 34 1003.8
20260504202305 87 178 3.0 11.0 0.00 0.00 0.00 33 1003.8
20260504202204 86 178 3.0 11.0 0.00 0.00 0.00 35 1003.9
20260504202104 86 183 4.0 11.0 0.00 0.00 0.00 34 1004.0
20260504202004 86 185 3.0 11.0 0.00 0.00 0.00 34 1003.9
20260504201904 86 183 3.0 7.0 0.00 0.00 0.00 35 1003.9
20260504201604 86 188 4.0 7.0 0.00 0.00 0.00 34 1004.0
20260504201504 86 191 4.0 7.0 0.00 0.00 0.00 36 1004.0
20260504201404 86 189 4.0 7.0 0.00 0.00 0.00 35 1004.0
20260504201304 86 192 4.0 9.0 0.00 0.00 0.00 34 1004.1
20260504201204 86 194 4.0 9.0 0.00 0.00 0.00 35 1004.1
20260504200904 86 182 4.0 9.0 0.00 0.00 0.00 35 1004.1
20260504200805 86 177 4.0 9.0 0.00 0.00 0.00 34 1004.1
20260504200705 86 175 3.0 9.0 0.00 0.00 0.00 34 1004.1
20260504200505 86 163 3.0 9.0 0.00 0.00 0.00 36 1004.2
20260504200405 86 161 3.0 9.0 0.00 0.00 0.00 34 1004.2
20260504200305 86 153 3.0 8.0 0.00 0.00 0.00 35 1004.2
20260504200205 86 139 3.0 8.0 0.00 0.00 0.00 34 1004.2
20260504200105 86 124 2.0 7.0 0.00 0.00 0.00 34 1004.2
20260504195905 86 118 2.0 7.0 0.00 0.00 0.00 36 1004.3
20260504195805 86 114 2.0 7.0 0.00 0.00 0.00 37 1004.3
20260504195704 86 107 2.0 7.0 0.00 0.00 0.00 35 1004.3
20260504195604 86 105 2.0 7.0 0.00 0.00 0.00 36 1004.3
20260504195505 86 104 2.0 7.0 0.00 0.00 0.00 35 1004.4
20260504195404 86 105 2.0 7.0 0.00 0.00 0.00 37 1004.4
20260504195304 86 106 2.0 7.0 0.00 0.00 0.00 37 1004.4
20260504195204 86 111 2.0 6.0 0.00 0.00 0.00 36 1004.4
20260504195104 86 123 2.0 5.0 0.00 0.00 0.00 36 1004.4
20260504195005 86 132 2.0 5.0 0.00 0.00 0.00 36 1004.4
20260504194804 85 149 2.0 6.0 0.00 0.00 0.00 35 1004.5
20260504194704 85 166 2.0 9.0 0.00 0.00 0.00 36 1004.5
20260504194604 85 177 2.0 9.0 0.00 0.00 0.00 35 1004.6
20260504194504 85 182 2.0 9.0 0.00 0.00 0.00 36 1004.6
20260504194205 85 168 2.0 9.0 0.00 0.00 0.00 38 1004.6
20260504194104 85 160 2.0 9.0 0.00 0.00 0.00 38 1004.6
20260504193904 85 154 2.0 9.0 0.00 0.00 0.00 36 1004.6
20260504193804 85 149 2.0 9.0 0.00 0.00 0.00 37 1004.6
20260504193704 84 134 2.0 5.0 0.00 0.00 0.00 37 1004.6
20260504193605 84 141 2.0 7.0 0.00 0.00 0.00 37 1004.6
20260504193504 84 146 2.0 7.0 0.00 0.00 0.00 36 1004.6
20260504193305 84 163 2.0 7.0 0.00 0.00 0.00 38 1004.7
20260504193204 84 178 2.0 7.0 0.00 0.00 0.00 36 1004.7
20260504193104 84 188 3.0 7.0 0.00 0.00 0.00 38 1004.8
20260504193005 84 195 3.0 7.0 0.00 0.00 0.00 36 1004.8
20260504192905 84 195 3.0 7.0 0.00 0.00 0.00 38 1004.8
20260504192705 84 193 3.0 7.0 0.00 0.00 0.00 36 1004.9
20260504192604 84 191 3.0 7.0 0.00 0.00 0.00 37 1004.9
20260504192504 84 191 3.0 7.0 0.00 0.00 0.00 38 1004.9
20260504192305 84 189 3.0 7.0 0.00 0.00 0.00 36 1004.9
20260504192204 84 189 3.0 7.0 0.00 0.00 0.00 37 1004.9
20260504192104 84 194 3.0 7.0 0.00 0.00 0.00 37 1004.9
20260504191905 83 203 3.0 7.0 0.00 0.00 0.00 38 1005.0
20260504191805 83 204 3.0 7.0 0.00 0.00 0.00 39 1005.0
20260504191705 83 204 3.0 7.0 0.00 0.00 0.00 37 1005.0
20260504191605 83 200 3.0 7.0 0.00 0.00 0.00 37 1005.1
20260504191505 83 200 3.0 7.0 0.00 0.00 0.00 37 1005.1
20260504191404 83 202 2.0 7.0 0.00 0.00 0.00 38 1005.1
20260504191305 83 200 2.0 7.0 0.00 0.00 0.00 40 1005.1
20260504191205 83 192 2.0 7.0 0.00 0.00 0.00 37 1005.1
20260504191104 83 179 2.0 7.0 0.00 0.00 0.00 38 1005.1
20260504191004 83 166 2.0 5.0 0.00 0.00 0.00 39 1005.2
20260504190904 83 165 2.0 5.0 0.00 0.00 0.00 38 1005.2
20260504190804 83 163 2.0 5.0 0.00 0.00 0.00 38 1005.2
20260504190705 83 159 2.0 5.0 0.00 0.00 0.00 37 1005.2
20260504190604 83 159 2.0 5.0 0.00 0.00 0.00 38 1005.2
20260504190504 83 164 2.0 6.0 0.00 0.00 0.00 39 1005.2
20260504190404 83 165 2.0 6.0 0.00 0.00 0.00 40 1005.2
20260504190305 83 169 2.0 6.0 0.00 0.00 0.00 40 1005.3
20260504190205 83 171 2.0 6.0 0.00 0.00 0.00 38 1005.3
20260504190104 83 170 2.0 6.0 0.00 0.00 0.00 39 1005.3
20260504190004 83 167 2.0 6.0 0.00 0.00 0.00 41 1005.3
20260504185904 82 160 2.0 6.0 0.00 0.00 0.00 39 1005.3
20260504185804 82 157 2.0 6.0 0.00 0.00 0.00 39 1005.3
20260504185704 82 157 2.0 6.0 0.00 0.00 0.00 37 1005.3
20260504185505 83 146 2.0 5.0 0.00 0.00 0.00 40 1005.3
20260504185405 83 144 2.0 5.0 0.00 0.00 0.00 39 1005.3
20260504185305 83 140 1.0 5.0 0.00 0.00 0.00 40 1005.3
20260504185205 83 138 1.0 4.0 0.00 0.00 0.00 39 1005.2
20260504185104 83 139 1.0 5.0 0.00 0.00 0.00 37 1005.3
20260504185005 83 147 1.0 5.0 0.00 0.00 0.00 38 1005.2
20260504184904 83 153 1.0 5.0 0.00 0.00 0.00 39 1005.2
20260504184806 82 162 1.0 5.0 0.00 0.00 0.00 41 1005.3
20260504184704 82 168 1.0 5.0 0.00 0.00 0.00 41 1005.2
20260504184405 82 173 2.0 5.0 0.00 0.00 0.00 40 1005.4
20260504184305 82 171 2.0 5.0 0.00 0.00 0.00 39 1005.4
20260504184205 82 165 2.0 5.0 0.00 0.00 0.00 40 1005.5
20260504184104 82 161 2.0 4.0 0.00 0.00 0.00 38 1005.5
20260504183904 82 161 2.0 4.0 0.00 0.00 0.00 38 1005.5
20260504183804 82 160 2.0 4.0 0.00 0.00 0.00 39 1005.5
20260504183705 82 161 2.0 4.0 0.00 0.00 0.00 39 1005.5
20260504183604 82 163 2.0 4.0 0.00 0.00 0.00 40 1005.5
20260504183505 82 164 2.0 4.0 0.00 0.00 0.00 41 1005.5
20260504183404 82 165 2.0 4.0 0.00 0.00 0.00 41 1005.4
20260504183205 81 179 2.0 4.0 0.00 0.00 0.00 40 1005.4
20260504183105 81 181 3.0 5.0 0.00 0.00 0.00 41 1005.4
20260504183004 81 183 3.0 7.0 0.00 0.00 0.00 39 1005.5
20260504182705 81 188 2.0 7.0 0.00 0.00 0.00 41 1005.6
20260504182605 81 185 2.0 7.0 0.00 0.00 0.00 39 1005.6
20260504182504 82 182 2.0 7.0 0.00 0.00 0.00 40 1005.5
20260504182304 82 172 3.0 7.0 0.00 0.00 0.00 38 1005.6
20260504182204 82 167 3.0 7.0 0.00 0.00 0.00 38 1005.6
20260504182105 82 167 2.0 7.0 0.00 0.00 0.00 38 1005.5
20260504182004 82 159 2.0 7.0 0.00 0.00 0.00 39 1005.5
20260504181904 82 158 2.0 6.0 0.00 0.00 0.00 39 1005.5
20260504181605 82 168 2.0 6.0 0.00 0.00 0.00 39 1005.6
20260504181505 82 170 2.0 5.0 0.00 0.00 0.00 40 1005.7
20260504181404 82 174 2.0 5.0 0.00 0.00 0.00 40 1005.7
20260504181304 82 182 2.0 5.0 0.00 0.00 0.00 40 1005.7
20260504181204 82 185 1.0 5.0 0.00 0.00 0.00 42 1005.6
20260504181104 82 186 1.0 5.0 0.00 0.00 0.00 41 1005.7
20260504181004 82 198 1.0 5.0 0.00 0.00 0.00 39 1005.7
20260504180904 82 214 2.0 5.0 0.00 0.00 0.00 39 1005.7
20260504180804 82 224 2.0 5.0 0.00 0.00 0.00 40 1005.6
20260504180704 82 224 2.0 5.0 0.00 0.00 0.00 41 1005.6
20260504180604 81 211 2.0 7.0 0.00 0.00 0.00 42 1005.6
20260504180504 81 202 2.0 7.0 0.00 0.00 0.00 42 1005.7
20260504180404 81 197 2.0 7.0 0.00 0.00 0.00 41 1005.6
20260504180304 80 191 2.0 7.0 0.00 0.00 0.00 39 1005.6
20260504180204 80 188 2.0 7.0 0.00 0.00 0.00 40 1005.7
20260504180004 81 193 2.0 7.0 0.00 0.00 0.00 39 1005.7
20260504175904 81 178 2.0 7.0 0.00 0.00 0.00 40 1005.8
20260504175804 81 170 2.0 7.0 0.00 0.00 0.00 40 1005.8
20260504175704 81 169 2.0 7.0 0.00 0.00 0.00 39 1005.7
20260504175605 81 168 2.0 6.0 0.00 0.00 0.00 40 1005.7
20260504175505 81 173 2.0 5.0 0.00 0.00 0.00 39 1005.7
20260504175405 81 182 2.0 5.0 0.00 0.00 0.00 40 1005.7
20260504175305 81 195 2.0 5.0 0.00 0.00 0.00 40 1005.7
20260504175205 81 197 2.0 5.0 0.00 0.00 0.00 40 1005.8
20260504175105 81 192 2.0 5.0 0.00 0.00 0.00 41 1005.8
20260504175005 81 192 2.0 5.0 0.00 0.00 0.00 41 1005.9
20260504174804 81 194 3.0 5.0 0.00 0.00 0.00 41 1005.8
20260504174704 81 194 3.0 5.0 0.00 0.00 0.00 41 1005.8
20260504174604 80 193 3.0 5.0 0.00 0.00 0.00 41 1005.9
20260504174504 80 194 2.0 5.0 0.00 0.00 0.00 41 1005.9
20260504174405 80 189 2.0 5.0 0.00 0.00 0.00 42 1005.8
20260504174305 80 181 3.0 5.0 0.00 0.00 0.00 43 1005.8
20260504174205 80 182 3.0 6.0 0.00 0.00 0.00 42 1005.9
20260504174105 80 183 3.0 6.0 0.00 0.00 0.00 43 1006.0
20260504174005 80 189 2.0 6.0 0.00 0.00 0.00 41 1005.9
20260504173905 80 185 2.0 6.0 0.00 0.00 0.00 42 1006.0
20260504173705 80 186 3.0 6.0 0.00 0.00 0.00 43 1006.0
20260504173604 80 193 3.0 7.0 0.00 0.00 0.00 43 1006.0
20260504173405 79 190 3.0 7.0 0.00 0.00 0.00 42 1006.0
20260504173305 79 192 3.0 7.0 0.00 0.00 0.00 41 1006.0
20260504173205 79 199 3.0 7.0 0.00 0.00 0.00 43 1006.0
20260504173104 79 203 2.0 7.0 0.00 0.00 0.00 43 1006.0
20260504173005 79 199 2.0 7.0 0.00 0.00 0.00 44 1006.0
20260504172804 79 198 2.0 7.0 0.00 0.00 0.00 43 1006.0
20260504172704 79 195 2.0 7.0 0.00 0.00 0.00 41 1006.0
20260504172604 79 188 2.0 5.0 0.00 0.00 0.00 43 1006.0
20260504172404 79 202 2.0 5.0 0.00 0.00 0.00 43 1006.0
20260504172305 79 200 2.0 5.0 0.00 0.00 0.00 43 1006.0
20260504172205 79 193 2.0 5.0 0.00 0.00 0.00 44 1006.0
20260504172105 79 187 2.0 5.0 0.00 0.00 0.00 44 1006.0
20260504171904 78 182 2.0 6.0 0.00 0.00 0.00 43 1006.1
20260504171805 78 183 2.0 6.0 0.00 0.00 0.00 44 1006.1
20260504171705 78 183 3.0 6.0 0.00 0.00 0.00 44 1006.1
20260504171606 78 178 3.0 6.0 0.00 0.00 0.00 45 1006.1
20260504171504 78 179 3.0 7.0 0.00 0.00 0.00 45 1006.0
20260504171405 78 176 3.0 7.0 0.00 0.00 0.00 45 1006.0
20260504171305 77 178 3.0 7.0 0.00 0.00 0.00 44 1005.9
20260504171204 77 176 3.0 7.0 0.00 0.00 0.00 45 1005.9
20260504170904 77 178 3.0 7.0 0.00 0.00 0.00 46 1006.0
20260504170804 77 179 3.0 7.0 0.00 0.00 0.00 45 1006.0
20260504170705 77 182 3.0 7.0 0.00 0.00 0.00 44 1006.0
20260504170604 77 190 3.0 7.0 0.00 0.00 0.00 44 1006.0
20260504170504 77 190 3.0 7.0 0.00 0.00 0.00 44 1006.0
20260504170405 77 191 3.0 7.0 0.00 0.00 0.00 44 1006.0
20260504170304 77 190 2.0 7.0 0.00 0.00 0.00 46 1006.0
20260504170204 77 188 2.0 7.0 0.00 0.00 0.00 46 1006.1
20260504160404 73 201 5.0 10.0 0.00 0.00 0.00 49 1005.6
20260504160304 73 198 5.0 10.0 0.00 0.00 0.00 49 1005.7
20260504160205 73 196 5.0 10.0 0.00 0.00 0.00 49 1005.6
20260504160104 73 196 5.0 11.0 0.00 0.00 0.00 49 1005.6
20260504151104 70 189 5.0 16.0 0.00 0.00 0.00 52 1005.9
20260504151004 70 186 6.0 16.0 0.00 0.00 0.00 52 1005.9
20260504150904 70 189 5.0 16.0 0.00 0.00 0.00 52 1006.0
20260504150804 70 191 5.0 16.0 0.00 0.00 0.00 52 1006.0
20260504150604 71 195 5.0 12.0 0.00 0.00 0.00 51 1006.0
20260504150504 71 198 5.0 14.0 0.00 0.00 0.00 52 1006.0
20260504150304 70 197 6.0 14.0 0.00 0.00 0.00 52 1006.0
20260504150205 70 198 6.0 14.0 0.00 0.00 0.00 52 1006.0
20260504141304 67 194 6.0 18.0 0.00 0.00 0.00 55 1006.2
20260504141204 67 192 6.0 18.0 0.00 0.00 0.00 56 1006.3
20260504141104 67 190 6.0 18.0 0.00 0.00 0.00 55 1006.3
20260504141005 67 190 6.0 18.0 0.00 0.00 0.00 55 1006.3
20260504140905 67 190 6.0 18.0 0.00 0.00 0.00 55 1006.3
20260504140805 67 190 6.0 18.0 0.00 0.00 0.00 55 1006.4
20260504140705 67 190 6.0 18.0 0.00 0.00 0.00 55 1006.3
20260504140605 67 190 5.0 18.0 0.00 0.00 0.00 55 1006.3
20260504140405 67 185 5.0 12.0 0.00 0.00 0.00 56 1006.2
20260504140304 66 185 5.0 12.0 0.00 0.00 0.00 56 1006.2
20260504140204 66 184 5.0 12.0 0.00 0.00 0.00 57 1006.3
20260504140104 66 185 5.0 12.0 0.00 0.00 0.00 57 1006.3
20260504130805 63 186 3.0 9.0 0.00 0.00 0.00 59 1006.4
20260504130705 63 184 3.0 9.0 0.00 0.00 0.00 60 1006.4
20260504130605 63 182 3.0 9.0 0.00 0.00 0.00 60 1006.4
20260504130405 63 185 3.0 9.0 0.00 0.00 0.00 60 1006.4
20260504130305 63 183 3.0 9.0 0.00 0.00 0.00 60 1006.3
20260504130205 63 182 4.0 9.0 0.00 0.00 0.00 60 1006.3
20260504130105 63 187 4.0 13.0 0.00 0.00 0.00 61 1006.2
20260504120304 61 181 4.0 13.0 0.00 0.00 0.00 61 1005.9
20260504110705 62 169 3.0 11.0 0.00 0.00 0.00 57 1006.1
20260504110605 62 173 3.0 11.0 0.00 0.00 0.00 57 1006.2
20260504110505 62 173 4.0 11.0 0.00 0.00 0.00 57 1006.2
20260504110405 62 172 4.0 11.0 0.00 0.00 0.00 57 1006.2
20260504110305 62 173 4.0 11.0 0.00 0.00 0.00 57 1006.2
20260504110205 62 173 4.0 11.0 0.00 0.00 0.00 57 1006.2
20260504110104 62 174 4.0 11.0 0.00 0.00 0.00 57 1006.3
20260504100505 64 177 4.0 13.0 0.00 0.00 0.00 53 1006.6
20260504100405 64 183 4.0 15.0 0.00 0.00 0.00 53 1006.6
20260504082004 66 167 3.0 9.0 0.00 0.00 0.00 50 1007.2
20260504081904 66 164 3.0 9.0 0.00 0.00 0.00 50 1007.2
20260504081705 66 168 3.0 9.0 0.00 0.00 0.00 50 1007.2
20260504081605 66 166 3.0 9.0 0.00 0.00 0.00 49 1007.2
20260504081505 66 166 3.0 9.0 0.00 0.00 0.00 50 1007.2
20260504081405 66 169 3.0 11.0 0.00 0.00 0.00 50 1007.2
20260504081305 66 171 3.0 11.0 0.00 0.00 0.00 49 1007.2
20260504081205 66 171 3.0 11.0 0.00 0.00 0.00 50 1007.3
20260504081105 66 169 3.0 11.0 0.00 0.00 0.00 49 1007.3
20260504081005 66 172 4.0 11.0 0.00 0.00 0.00 49 1007.3
20260504080904 66 173 4.0 11.0 0.00 0.00 0.00 49 1007.2
20260504080805 66 173 4.0 11.0 0.00 0.00 0.00 49 1007.3
20260504080704 66 174 4.0 11.0 0.00 0.00 0.00 49 1007.3
20260504080605 66 178 4.0 12.0 0.00 0.00 0.00 49 1007.3
20260504080505 66 178 4.0 12.0 0.00 0.00 0.00 49 1007.3
20260504080405 66 176 4.0 12.0 0.00 0.00 0.00 49 1007.3
20260504080304 66 172 4.0 12.0 0.00 0.00 0.00 49 1007.3
20260504080205 66 172 4.0 12.0 0.00 0.00 0.00 49 1007.3
20260504080105 66 175 4.0 12.0 0.00 0.00 0.00 49 1007.4
20260504070405 68 179 5.0 13.0 0.00 0.00 0.00 46 1007.9
20260504070305 68 178 6.0 13.0 0.00 0.00 0.00 46 1007.9
20260504070205 68 185 6.0 16.0 0.00 0.00 0.00 46 1007.9
20260504070105 68 186 6.0 16.0 0.00 0.00 0.00 46 1007.9
20260504060204 70 192 6.0 20.0 0.00 0.00 0.00 44 1008.2
20260504050704 71 181 5.0 16.0 0.00 0.00 0.00 42 1008.2
20260504050604 71 178 5.0 16.0 0.00 0.00 0.00 42 1008.2
20260504050504 71 181 6.0 14.0 0.00 0.00 0.00 42 1008.2
20260504050404 71 181 6.0 14.0 0.00 0.00 0.00 42 1008.2
20260504050304 71 181 6.0 14.0 0.00 0.00 0.00 42 1008.2
20260504050105 71 179 6.0 15.0 0.00 0.00 0.00 42 1008.2
20260504045705 71 181 6.0 17.0 0.00 0.00 0.00 41 1008.2
20260504045604 71 184 6.0 17.0 0.00 0.00 0.00 41 1008.3
20260504045504 71 185 6.0 17.0 0.00 0.00 0.00 41 1008.3
20260504045404 71 184 6.0 17.0 0.00 0.00 0.00 41 1008.2
20260504045304 71 183 6.0 17.0 0.00 0.00 0.00 41 1008.2
20260504045104 71 181 6.0 17.0 0.00 0.00 0.00 41 1008.1
20260504045005 71 184 7.0 17.0 0.00 0.00 0.00 41 1008.2
20260504044905 71 187 7.0 17.0 0.00 0.00 0.00 41 1008.2
20260504044805 71 184 7.0 16.0 0.00 0.00 0.00 40 1008.2
20260504044705 71 186 7.0 16.0 0.00 0.00 0.00 40 1008.2
20260504044604 71 185 7.0 16.0 0.00 0.00 0.00 40 1008.2
20260504044505 71 185 7.0 16.0 0.00 0.00 0.00 40 1008.2
20260504044404 71 184 7.0 16.0 0.00 0.00 0.00 40 1008.2
20260504044305 71 185 7.0 16.0 0.00 0.00 0.00 40 1008.2
20260504044205 71 185 6.0 16.0 0.00 0.00 0.00 40 1008.2
20260504044105 71 184 6.0 16.0 0.00 0.00 0.00 40 1008.2
20260504043904 71 179 6.0 16.0 0.00 0.00 0.00 40 1008.2
20260504043804 71 182 6.0 16.0 0.00 0.00 0.00 40 1008.2
20260504043705 71 179 6.0 13.0 0.00 0.00 0.00 40 1008.2
20260504043505 71 178 6.0 15.0 0.00 0.00 0.00 40 1008.2
20260504043305 71 181 6.0 17.0 0.00 0.00 0.00 39 1008.2
20260504043204 71 181 6.0 17.0 0.00 0.00 0.00 39 1008.2
20260504043004 71 183 6.0 17.0 0.00 0.00 0.00 39 1008.2
20260504042904 71 183 6.0 17.0 0.00 0.00 0.00 39 1008.2
20260504042805 71 182 6.0 17.0 0.00 0.00 0.00 39 1008.2
20260504042705 71 182 6.0 17.0 0.00 0.00 0.00 39 1008.2
20260504042604 71 181 5.0 17.0 0.00 0.00 0.00 39 1008.1
20260504042504 71 181 5.0 17.0 0.00 0.00 0.00 39 1008.2
20260504042404 71 179 5.0 17.0 0.00 0.00 0.00 39 1008.2
20260504042204 71 177 5.0 13.0 0.00 0.00 0.00 39 1008.1
20260504042105 71 178 5.0 13.0 0.00 0.00 0.00 39 1008.2
20260504041905 71 173 4.0 13.0 0.00 0.00 0.00 39 1008.2
20260504041805 71 171 4.0 13.0 0.00 0.00 0.00 39 1008.2
20260504041705 71 171 4.0 13.0 0.00 0.00 0.00 39 1008.2
20260504041504 70 170 4.0 13.0 0.00 0.00 0.00 39 1008.3
20260504041404 70 170 4.0 11.0 0.00 0.00 0.00 39 1008.3
20260504041305 70 169 5.0 11.0 0.00 0.00 0.00 39 1008.2
20260504041205 70 175 4.0 14.0 0.00 0.00 0.00 39 1008.2
20260504041105 70 171 4.0 14.0 0.00 0.00 0.00 39 1008.3
20260504041004 70 172 4.0 14.0 0.00 0.00 0.00 39 1008.3
20260504040804 70 171 4.0 14.0 0.00 0.00 0.00 39 1008.3
20260504040704 70 171 4.0 14.0 0.00 0.00 0.00 39 1008.3
20260504040604 70 166 4.0 14.0 0.00 0.00 0.00 39 1008.3
20260504040505 70 170 4.0 14.0 0.00 0.00 0.00 39 1008.3
20260504040405 70 168 3.0 14.0 0.00 0.00 0.00 39 1008.3
20260504040305 70 170 3.0 14.0 0.00 0.00 0.00 39 1008.3
20260504040204 70 162 3.0 11.0 0.00 0.00 0.00 39 1008.3
20260504040104 70 163 3.0 11.0 0.00 0.00 0.00 39 1008.4
20260504035904 70 165 3.0 11.0 0.00 0.00 0.00 39 1008.3
20260504035804 70 164 3.0 11.0 0.00 0.00 0.00 39 1008.3
20260504035704 70 163 3.0 11.0 0.00 0.00 0.00 39 1008.3
20260504035605 70 164 3.0 11.0 0.00 0.00 0.00 39 1008.3
20260504035505 70 160 3.0 9.0 0.00 0.00 0.00 39 1008.3
20260504035405 70 159 3.0 9.0 0.00 0.00 0.00 39 1008.3
20260504035305 70 161 3.0 9.0 0.00 0.00 0.00 39 1008.3
20260504035204 70 165 3.0 9.0 0.00 0.00 0.00 39 1008.3
20260504035105 70 164 3.0 9.0 0.00 0.00 0.00 39 1008.3
20260504035004 70 162 3.0 9.0 0.00 0.00 0.00 38 1008.3
20260504034904 70 165 3.0 9.0 0.00 0.00 0.00 38 1008.3
20260504034804 70 165 3.0 9.0 0.00 0.00 0.00 39 1008.3
20260504034704 70 167 3.0 9.0 0.00 0.00 0.00 39 1008.3
20260504034605 70 168 3.0 9.0 0.00 0.00 0.00 38 1008.3
20260504034505 70 169 3.0 9.0 0.00 0.00 0.00 38 1008.4
20260504034405 70 170 3.0 9.0 0.00 0.00 0.00 38 1008.4
20260504034304 70 166 3.0 9.0 0.00 0.00 0.00 38 1008.4
20260504034204 70 162 3.0 6.0 0.00 0.00 0.00 38 1008.4
20260504034104 71 163 3.0 7.0 0.00 0.00 0.00 38 1008.4
20260504034004 71 165 3.0 7.0 0.00 0.00 0.00 38 1008.3
20260504033904 70 162 3.0 7.0 0.00 0.00 0.00 38 1008.4
20260504033805 71 163 3.0 7.0 0.00 0.00 0.00 38 1008.4
20260504033705 71 162 2.0 7.0 0.00 0.00 0.00 38 1008.4
20260504033605 71 160 2.0 7.0 0.00 0.00 0.00 38 1008.3
20260504033505 71 160 2.0 7.0 0.00 0.00 0.00 38 1008.3
20260504033404 70 159 2.0 7.0 0.00 0.00 0.00 38 1008.4
20260504033304 70 162 2.0 7.0 0.00 0.00 0.00 38 1008.3
20260504033204 71 160 2.0 7.0 0.00 0.00 0.00 38 1008.4
20260504033004 71 158 2.0 6.0 0.00 0.00 0.00 38 1008.3
20260504032905 71 155 2.0 6.0 0.00 0.00 0.00 38 1008.4
20260504032805 71 156 2.0 7.0 0.00 0.00 0.00 38 1008.4
20260504032704 71 160 2.0 7.0 0.00 0.00 0.00 37 1008.3
20260504032604 71 160 2.0 7.0 0.00 0.00 0.00 37 1008.3
20260504032504 71 158 2.0 7.0 0.00 0.00 0.00 37 1008.3
20260504032404 71 159 2.0 7.0 0.00 0.00 0.00 37 1008.3
20260504032204 71 158 2.0 9.0 0.00 0.00 0.00 37 1008.3
20260504032105 71 158 2.0 9.0 0.00 0.00 0.00 37 1008.3
20260504031905 71 162 2.0 9.0 0.00 0.00 0.00 36 1008.3
20260504031805 71 162 2.0 9.0 0.00 0.00 0.00 37 1008.3
20260504031704 71 159 2.0 9.0 0.00 0.00 0.00 36 1008.3
20260504031504 71 160 2.0 9.0 0.00 0.00 0.00 36 1008.3
20260504031404 71 157 2.0 9.0 0.00 0.00 0.00 36 1008.2
20260504031204 72 160 2.0 5.0 0.00 0.00 0.00 36 1008.2
20260504031104 72 159 2.0 5.0 0.00 0.00 0.00 36 1008.2
20260504031004 72 159 2.0 5.0 0.00 0.00 0.00 36 1008.1
20260504030905 72 156 2.0 5.0 0.00 0.00 0.00 36 1008.2
20260504030805 72 157 2.0 6.0 0.00 0.00 0.00 36 1008.2
20260504030704 72 156 2.0 6.0 0.00 0.00 0.00 36 1008.1
20260504030604 72 156 2.0 6.0 0.00 0.00 0.00 35 1008.1
20260504030504 72 157 2.0 6.0 0.00 0.00 0.00 35 1008.0
20260504030404 72 160 2.0 6.0 0.00 0.00 0.00 35 1008.0
20260504030204 72 155 2.0 6.0 0.00 0.00 0.00 36 1007.9
20260504025905 73 160 2.0 10.0 0.00 0.00 0.00 35 1007.9
20260504025805 73 159 2.0 10.0 0.00 0.00 0.00 35 1007.9
20260504025705 73 159 3.0 10.0 0.00 0.00 0.00 35 1007.9
20260504025604 73 159 3.0 10.0 0.00 0.00 0.00 35 1007.9
20260504025505 73 159 3.0 10.0 0.00 0.00 0.00 35 1007.9
20260504025404 73 157 3.0 10.0 0.00 0.00 0.00 34 1007.9
20260504025204 73 163 3.0 10.0 0.00 0.00 0.00 35 1007.9
20260504025104 73 159 3.0 8.0 0.00 0.00 0.00 34 1007.9
20260504025005 73 159 3.0 8.0 0.00 0.00 0.00 34 1007.9
20260504024905 73 162 3.0 8.0 0.00 0.00 0.00 35 1007.9
20260504024704 74 161 3.0 8.0 0.00 0.00 0.00 34 1007.9
20260504024604 74 163 3.0 8.0 0.00 0.00 0.00 34 1007.9
20260504024504 74 164 3.0 9.0 0.00 0.00 0.00 34 1007.9
20260504024404 74 169 3.0 9.0 0.00 0.00 0.00 34 1007.8
20260504024304 74 169 3.0 10.0 0.00 0.00 0.00 34 1007.9
20260504024204 74 167 4.0 10.0 0.00 0.00 0.00 34 1007.9
20260504024105 74 167 4.0 10.0 0.00 0.00 0.00 34 1007.9
20260504023904 74 168 4.0 10.0 0.00 0.00 0.00 34 1007.8
20260504023804 74 171 4.0 10.0 0.00 0.00 0.00 33 1007.8
20260504023704 74 173 4.0 10.0 0.00 0.00 0.00 33 1007.8
20260504023604 74 173 4.0 10.0 0.00 0.00 0.00 34 1007.8
20260504023505 74 173 3.0 13.0 0.00 0.00 0.00 33 1007.8
20260504023204 74 169 3.0 13.0 0.00 0.00 0.00 33 1007.9
20260504023104 74 171 3.0 13.0 0.00 0.00 0.00 33 1007.9
20260504023004 74 172 3.0 13.0 0.00 0.00 0.00 33 1007.9
20260504022904 74 172 3.0 13.0 0.00 0.00 0.00 33 1007.9
20260504022804 74 171 3.0 13.0 0.00 0.00 0.00 33 1007.9
20260504022704 74 168 3.0 13.0 0.00 0.00 0.00 33 1007.9
20260504022605 74 168 3.0 13.0 0.00 0.00 0.00 34 1007.9
20260504022305 74 173 3.0 10.0 0.00 0.00 0.00 34 1007.9
20260504022204 74 173 3.0 10.0 0.00 0.00 0.00 34 1007.9
20260504022104 74 171 3.0 10.0 0.00 0.00 0.00 34 1007.9
20260504022004 74 169 3.0 10.0 0.00 0.00 0.00 33 1007.9
20260504021805 74 167 3.0 10.0 0.00 0.00 0.00 34 1007.9
20260504021705 74 167 3.0 10.0 0.00 0.00 0.00 34 1007.9
20260504021605 74 166 3.0 10.0 0.00 0.00 0.00 33 1007.9
20260504021404 74 164 2.0 9.0 0.00 0.00 0.00 33 1007.9
20260504021304 74 160 2.0 9.0 0.00 0.00 0.00 33 1007.9
20260504021204 74 160 2.0 9.0 0.00 0.00 0.00 34 1007.9
20260504021105 74 161 2.0 9.0 0.00 0.00 0.00 34 1007.9
20260504021005 74 163 2.0 9.0 0.00 0.00 0.00 33 1007.9
20260504020904 74 162 2.0 9.0 0.00 0.00 0.00 33 1007.9
20260504020804 74 162 2.0 9.0 0.00 0.00 0.00 33 1007.9
20260504020704 75 162 2.0 9.0 0.00 0.00 0.00 33 1007.9
20260504020404 75 161 2.0 6.0 0.00 0.00 0.00 33 1007.9
20260504020304 75 161 2.0 6.0 0.00 0.00 0.00 33 1007.9
20260504020105 75 161 2.0 6.0 0.00 0.00 0.00 32 1007.9
20260504020004 75 157 2.0 6.0 0.00 0.00 0.00 32 1007.9
20260504015904 75 159 2.0 6.0 0.00 0.00 0.00 33 1007.9
20260504015804 75 157 2.0 6.0 0.00 0.00 0.00 33 1008.0
20260504015705 75 158 2.0 6.0 0.00 0.00 0.00 33 1007.9
20260504015605 75 157 2.0 5.0 0.00 0.00 0.00 32 1007.9
20260504015505 75 157 2.0 5.0 0.00 0.00 0.00 32 1007.9
20260504015404 75 157 2.0 5.0 0.00 0.00 0.00 32 1007.9
20260504015305 75 160 2.0 6.0 0.00 0.00 0.00 32 1007.9
20260504015204 75 159 2.0 6.0 0.00 0.00 0.00 32 1007.9
20260504015104 76 158 2.0 6.0 0.00 0.00 0.00 32 1007.9
20260504015004 76 160 2.0 6.0 0.00 0.00 0.00 32 1007.8
20260504014805 76 161 2.0 6.0 0.00 0.00 0.00 31 1007.8
20260504014504 76 159 2.0 6.0 0.00 0.00 0.00 31 1007.8
20260504014104 76 154 2.0 6.0 0.00 0.00 0.00 31 1007.8
20260504013904 76 154 2.0 6.0 0.00 0.00 0.00 31 1007.8
20260504013704 76 156 2.0 6.0 0.00 0.00 0.00 31 1007.8
20260504013604 76 156 2.0 5.0 0.00 0.00 0.00 31 1007.8
20260504013304 77 165 2.0 6.0 0.00 0.00 0.00 30 1007.8
20260504013205 77 164 2.0 6.0 0.00 0.00 0.00 30 1007.8
20260504013105 77 163 2.0 6.0 0.00 0.00 0.00 30 1007.8
20260504013005 77 162 2.0 6.0 0.00 0.00 0.00 30 1007.8
20260504012904 77 162 2.0 6.0 0.00 0.00 0.00 30 1007.8
20260504012804 77 162 2.0 6.0 0.00 0.00 0.00 30 1007.8
20260504012705 77 162 2.0 6.0 0.00 0.00 0.00 30 1007.8
20260504012604 77 162 2.0 6.0 0.00 0.00 0.00 30 1007.8
20260504012504 77 158 2.0 6.0 0.00 0.00 0.00 30 1007.8
20260504012304 77 157 2.0 5.0 0.00 0.00 0.00 30 1007.8
20260504012205 78 161 2.0 6.0 0.00 0.00 0.00 29 1007.8
20260504012005 78 165 2.0 6.0 0.00 0.00 0.00 29 1007.8
20260504011804 78 165 3.0 6.0 0.00 0.00 0.00 29 1007.7
20260504011704 78 171 3.0 8.0 0.00 0.00 0.00 29 1007.7
20260504011604 78 172 3.0 8.0 0.00 0.00 0.00 29 1007.7
20260504011504 78 171 3.0 8.0 0.00 0.00 0.00 29 1007.7
20260504011305 78 175 3.0 12.0 0.00 0.00 0.00 28 1007.8
20260504011204 78 177 3.0 12.0 0.00 0.00 0.00 28 1007.7
20260504011104 78 177 3.0 12.0 0.00 0.00 0.00 28 1007.8
20260504011004 79 181 3.0 12.0 0.00 0.00 0.00 28 1007.8
20260504010904 79 181 3.0 12.0 0.00 0.00 0.00 28 1007.8
20260504010804 79 182 3.0 12.0 0.00 0.00 0.00 28 1007.8
20260504010705 79 179 3.0 12.0 0.00 0.00 0.00 28 1007.8
20260504010605 79 181 3.0 12.0 0.00 0.00 0.00 28 1007.9
20260504010504 79 181 3.0 12.0 0.00 0.00 0.00 28 1007.9
20260504010405 79 183 3.0 12.0 0.00 0.00 0.00 27 1007.9
20260504010305 79 183 3.0 9.0 0.00 0.00 0.00 28 1007.9
20260504010205 79 184 4.0 9.0 0.00 0.00 0.00 27 1007.9
20260504010005 79 184 4.0 10.0 0.00 0.00 0.00 28 1007.9
20260504005905 80 184 4.0 10.0 0.00 0.00 0.00 28 1007.8
20260504005805 80 186 4.0 11.0 0.00 0.00 0.00 27 1007.8
20260504005705 80 186 5.0 11.0 0.00 0.00 0.00 28 1007.8
20260504005505 80 190 5.0 11.0 0.00 0.00 0.00 27 1007.9
20260504005405 80 188 5.0 11.0 0.00 0.00 0.00 27 1007.9
20260504005305 80 189 5.0 11.0 0.00 0.00 0.00 27 1007.8
20260504005205 80 189 5.0 11.0 0.00 0.00 0.00 27 1007.9
20260504005105 80 188 4.0 11.0 0.00 0.00 0.00 27 1007.9
20260504005005 80 187 4.0 11.0 0.00 0.00 0.00 27 1007.8
20260504004704 80 189 3.0 9.0 0.00 0.00 0.00 27 1007.9
20260504004605 80 186 3.0 9.0 0.00 0.00 0.00 27 1008.0
20260504004505 80 188 3.0 10.0 0.00 0.00 0.00 26 1008.0
20260504004405 80 189 3.0 10.0 0.00 0.00 0.00 26 1008.0
20260504004305 81 187 3.0 10.0 0.00 0.00 0.00 27 1008.0
20260504004205 81 187 4.0 10.0 0.00 0.00 0.00 27 1008.0
20260504004005 81 189 4.0 10.0 0.00 0.00 0.00 26 1008.1
20260504003905 81 190 4.0 10.0 0.00 0.00 0.00 26 1008.0
20260504003805 81 190 4.0 10.0 0.00 0.00 0.00 26 1008.0
20260504003705 81 191 4.0 10.0 0.00 0.00 0.00 26 1008.1
20260504003605 81 191 4.0 10.0 0.00 0.00 0.00 26 1008.1
20260504003505 81 190 4.0 9.0 0.00 0.00 0.00 26 1008.1
20260504003405 81 189 4.0 9.0 0.00 0.00 0.00 26 1008.1
20260504003304 81 191 4.0 9.0 0.00 0.00 0.00 26 1008.1
20260504003205 81 192 4.0 9.0 0.00 0.00 0.00 25 1008.1
20260504003105 81 190 4.0 9.0 0.00 0.00 0.00 25 1008.1
20260504003005 81 189 4.0 9.0 0.00 0.00 0.00 26 1008.1
20260504002905 82 190 4.0 9.0 0.00 0.00 0.00 26 1008.1
20260504002805 81 188 4.0 9.0 0.00 0.00 0.00 25 1008.2
20260504002705 82 184 4.0 9.0 0.00 0.00 0.00 26 1008.2
20260504002604 81 184 4.0 9.0 0.00 0.00 0.00 26 1008.2
20260504002505 81 182 4.0 9.0 0.00 0.00 0.00 25 1008.2
20260504002205 81 181 4.0 10.0 0.00 0.00 0.00 26 1008.2
20260504002105 81 187 5.0 15.0 0.00 0.00 0.00 26 1008.2
20260504002005 82 192 5.0 15.0 0.00 0.00 0.00 26 1008.2
20260504001904 82 192 5.0 15.0 0.00 0.00 0.00 26 1008.2
20260504001805 82 194 6.0 15.0 0.00 0.00 0.00 26 1008.2
20260504001705 82 197 6.0 15.0 0.00 0.00 0.00 25 1008.2
20260504001605 82 197 6.0 15.0 0.00 0.00 0.00 25 1008.2
20260504001505 82 196 5.0 15.0 0.00 0.00 0.00 25 1008.2
20260504001405 82 195 6.0 15.0 0.00 0.00 0.00 25 1008.2
20260504001305 82 196 6.0 15.0 0.00 0.00 0.00 25 1008.2
20260504001204 82 198 5.0 15.0 0.00 0.00 0.00 25 1008.2
20260504001105 82 195 5.0 14.0 0.00 0.00 0.00 25 1008.3
20260504001005 82 190 5.0 13.0 0.00 0.00 0.00 25 1008.3
20260504000905 82 189 5.0 13.0 0.00 0.00 0.00 25 1008.3
20260504000805 82 187 4.0 13.0 0.00 0.00 0.00 25 1008.3
20260504000705 82 184 5.0 13.0 0.00 0.00 0.00 25 1008.4
20260504000605 82 185 5.0 13.0 0.00 0.00 0.00 25 1008.4
20260504000504 82 189 5.0 13.0 0.00 0.00 0.00 25 1008.4
20260504000205 82 192 5.0 13.0 0.00 0.00 0.00 25 1008.4
20260504000105 82 192 5.0 13.0 0.00 0.00 0.00 25 1008.4
20260504000005 82 194 5.0 13.0 0.00 0.00 0.00 25 1008.4
20260503235904 82 195 6.0 13.0 0.00 0.00 0.00 25 1008.4
20260503235805 82 196 6.0 13.0 0.00 0.00 0.00 24 1008.4
20260503235705 82 198 6.0 13.0 0.00 0.00 0.00 25 1008.4
20260503235505 82 194 6.0 14.0 0.00 0.00 0.00 25 1008.4
20260503235405 82 191 6.0 14.0 0.00 0.00 0.00 24 1008.5
20260503235305 82 193 5.0 14.0 0.00 0.00 0.00 25 1008.5
20260503235205 83 193 6.0 14.0 0.00 0.00 0.00 24 1008.5
20260503235005 83 196 6.0 14.0 0.00 0.00 0.00 24 1008.4
20260503234804 83 195 5.0 14.0 0.00 0.00 0.00 24 1008.4
20260503234705 83 193 5.0 14.0 0.00 0.00 0.00 24 1008.5
20260503234605 83 196 5.0 14.0 0.00 0.00 0.00 23 1008.4
20260503234505 83 198 5.0 12.0 0.00 0.00 0.00 24 1008.5
20260503234305 83 196 5.0 15.0 0.00 0.00 0.00 24 1008.5
20260503234104 83 192 5.0 15.0 0.00 0.00 0.00 24 1008.6
20260503234005 84 190 5.0 15.0 0.00 0.00 0.00 23 1008.5
20260503233905 84 191 5.0 15.0 0.00 0.00 0.00 23 1008.6
20260503233805 84 190 5.0 15.0 0.00 0.00 0.00 23 1008.5
20260503233605 84 188 5.0 15.0 0.00 0.00 0.00 23 1008.6
20260503233504 84 189 5.0 15.0 0.00 0.00 0.00 22 1008.6
20260503233404 84 191 5.0 15.0 0.00 0.00 0.00 24 1008.6
20260503233304 84 192 5.0 11.0 0.00 0.00 0.00 24 1008.6
20260503233205 84 192 5.0 12.0 0.00 0.00 0.00 24 1008.6
20260503232905 84 195 6.0 13.0 0.00 0.00 0.00 23 1008.6
20260503232805 84 195 6.0 13.0 0.00 0.00 0.00 23 1008.7
20260503232705 84 195 7.0 13.0 0.00 0.00 0.00 23 1008.6
20260503232605 84 194 6.0 13.0 0.00 0.00 0.00 23 1008.7
20260503232504 84 194 7.0 13.0 0.00 0.00 0.00 22 1008.7
20260503232404 84 193 7.0 18.0 0.00 0.00 0.00 23 1008.7
20260503232306 84 194 7.0 18.0 0.00 0.00 0.00 23 1008.7
20260503232205 84 194 6.0 18.0 0.00 0.00 0.00 22 1008.7
20260503232105 84 194 6.0 18.0 0.00 0.00 0.00 23 1008.8
20260503231905 84 197 6.0 18.0 0.00 0.00 0.00 23 1008.7
20260503231804 84 198 6.0 18.0 0.00 0.00 0.00 23 1008.7
20260503231704 84 200 6.0 18.0 0.00 0.00 0.00 23 1008.7
20260503231604 84 200 6.0 18.0 0.00 0.00 0.00 23 1008.7
20260503231504 84 200 5.0 18.0 0.00 0.00 0.00 23 1008.7
20260503231405 84 201 5.0 15.0 0.00 0.00 0.00 24 1008.6
20260503231305 85 200 6.0 16.0 0.00 0.00 0.00 23 1008.7
20260503231105 85 200 6.0 16.0 0.00 0.00 0.00 23 1008.7
20260503231005 85 201 6.0 17.0 0.00 0.00 0.00 23 1008.7
20260503230904 85 201 6.0 17.0 0.00 0.00 0.00 23 1008.8
20260503230805 85 205 6.0 17.0 0.00 0.00 0.00 23 1008.7
20260503230704 85 204 7.0 17.0 0.00 0.00 0.00 23 1008.8
20260503230505 85 207 7.0 17.0 0.00 0.00 0.00 23 1008.8
20260503230405 85 206 7.0 17.0 0.00 0.00 0.00 23 1008.8
20260503230305 85 205 6.0 17.0 0.00 0.00 0.00 23 1008.8
20260503230205 85 205 6.0 17.0 0.00 0.00 0.00 23 1008.8
20260503230105 85 203 6.0 17.0 0.00 0.00 0.00 22 1008.8
20260503225905 85 198 6.0 14.0 0.00 0.00 0.00 24 1008.8
20260503225804 85 194 6.0 14.0 0.00 0.00 0.00 23 1008.8
20260503225605 85 195 5.0 13.0 0.00 0.00 0.00 23 1008.9
20260503225505 85 197 6.0 13.0 0.00 0.00 0.00 23 1008.8
20260503225405 85 198 5.0 13.0 0.00 0.00 0.00 23 1008.8
20260503225305 85 198 6.0 13.0 0.00 0.00 0.00 23 1008.8
20260503225205 85 201 6.0 13.0 0.00 0.00 0.00 22 1008.8
20260503225104 85 203 6.0 13.0 0.00 0.00 0.00 23 1008.8
20260503225004 85 203 6.0 13.0 0.00 0.00 0.00 23 1008.8
20260503224805 85 199 6.0 14.0 0.00 0.00 0.00 22 1008.8
20260503224705 85 196 6.0 14.0 0.00 0.00 0.00 22 1008.8
20260503224505 85 196 6.0 14.0 0.00 0.00 0.00 21 1008.8
20260503224405 85 198 6.0 14.0 0.00 0.00 0.00 21 1008.9
20260503224305 85 199 6.0 14.0 0.00 0.00 0.00 21 1008.9
20260503224105 85 201 7.0 14.0 0.00 0.00 0.00 22 1008.9
20260503223904 85 207 6.0 14.0 0.00 0.00 0.00 21 1009.0
20260503223804 85 208 6.0 14.0 0.00 0.00 0.00 22 1009.0
20260503223704 85 207 7.0 14.0 0.00 0.00 0.00 21 1008.9
20260503223605 85 207 7.0 14.0 0.00 0.00 0.00 20 1008.9
20260503223505 85 207 7.0 14.0 0.00 0.00 0.00 21 1008.9
20260503223405 85 206 6.0 14.0 0.00 0.00 0.00 20 1008.9
20260503223305 85 206 6.0 14.0 0.00 0.00 0.00 21 1008.9
20260503223205 85 206 6.0 14.0 0.00 0.00 0.00 20 1009.0
20260503223005 85 203 7.0 15.0 0.00 0.00 0.00 20 1009.1
20260503222904 85 199 7.0 15.0 0.00 0.00 0.00 20 1009.0
20260503222805 85 198 7.0 15.0 0.00 0.00 0.00 21 1009.0